Terminal Aerodrome Forecast
Issued by NWS Dodge City, KS

Home | Current Version | Previous Version | Text Only | Print | Product List | Glossary On
Versions: 1 2 3 4 5 6 7 8 9 10 11 12 13 14 15 16 17 18 19 20 21 22 23 24 25 26 27 28 29 30 31 32 33 34 35 36 37 38 39 40 41 42
000
FTUS43 KDDC 021703 AAB
TAFDDC
TAF AMD
KDDC 021703Z 0217/0312 13010KT 4SM BR OVC004
     FM021800 14012G18KT P6SM BKN008
     FM021900 16010KT P6SM SKC=

USA.gov is the U.S. government's official web portal to all federal, state and local government web resources and services.